Regional Weather Roundup
Issued by NWS Green Bay, WI

Home | Current Version | Previous Version | Graphics & Text | Print | Product List | Glossary Off
Versions: 1 2 3 4 5 6 7 8 9 10 11 12 13 14 15 16 17 18 19 20 21 22 23 24 25 26 27 28 29 30 31 32 33 34 35 36 37 38 39 40 41 42 43 44 45 46 47 48 49 50

000
ASUS43 KGRB 260410
RWRGRB

NORTH-CENTRAL AND NORTHEAST WISCONSIN REGIONAL WEATHER ROUNDUP
NATIONAL WEATHER SERVICE GREEN BAY WI
1000 PM CST THU DEC 25 2014

WIZ005-009-010>012-018-019-260500-
NORTH CENTRAL WISCONSIN

CITY           SKY/WX    TMP DP  RH WIND       PRES   REMARKS
IRONWOOD       CLOUDY    30  30 100 SW5       29.87R
MANITOWISH WTR LGT SNOW  28  28 100 CALM      29.87S
ARBOR VITAE    LGT SNOW  32  31  95 CALM      29.87S
EAGLE RIVER    LGT SNOW  30  30 100 CALM      29.87S
LAND O LAKES   LGT SNOW  30  30  99 CALM      29.88R
RHINELANDER    CLOUDY    29  28  96 CALM      29.88R FOG
PHILLIPS       MIX PCPN  29  29 100 CALM      29.87S
ANTIGO         CLOUDY    26  26 100 SE3       29.88S FOG
TOMAHAWK       CLOUDY    29  28  96 CALM      29.88F FOG
MERRILL        MOCLDY    28  28 100 CALM      29.88S FOG
$$

WIZ013-073-260500-
NORTHEAST WISCONSIN

CITY           SKY/WX    TMP DP  RH WIND       PRES   REMARKS
IRON MOUNTAIN  LGT SNOW  31  30  96 CALM      29.89S FOG
MARINETTE      MOCLDY    34  28  80 CALM      29.93R
OCONTO         MOCLDY    29  29 100 CALM      29.93S
$$

WIZ017-030-035>037-045-260500-
CENTRAL WISCONSIN

CITY           SKY/WX    TMP DP  RH WIND       PRES   REMARKS
MEDFORD        CLOUDY    28  27  94 CALM      29.87R
WAUSAU         MOCLDY    29  27  92 SE3       29.88S
MOSINEE        MOCLDY    30  30 100 SE3       29.90R
MARSHFIELD     MOCLDY    29  26  89 E5        29.87R
WISC RAPIDS    MOCLDY    29  27  92 CALM      29.90R
STEVENS POINT  MOCLDY    27  26  97 CALM      29.90R FOG
WAUPACA        CLOUDY    31  29  95 CALM      29.92R FOG
SHAWANO        MOCLDY    32  30  93 CALM      29.93R FOG
CLINTONVILLE   CLOUDY    30  30 100 CALM      29.91S
$$

WIZ038-039-048-051-260500-
FOX VALLEY

CITY           SKY/WX    TMP DP  RH WIND       PRES   REMARKS
NWS GREEN BAY  CLOUDY    32  31  96 CALM      29.93R
APPLETON       PTCLDY    32  30  93 VRB3      29.92R
OSHKOSH        MOCLDY    36  32  85 S8        29.92R
FOND DU LAC    MOCLDY    38  32  79 S13       29.92R
$$

WIZ022-050-052-260500-
EAST CENTRAL WISCONSIN

CITY           SKY/WX    TMP DP  RH WIND       PRES   REMARKS
STURGEON BAY   MOCLDY    34  28  80 S6        29.96R
MANITOWOC      CLOUDY    35  32  88 CALM      29.94R
SHEBOYGAN      MOCLDY    35  31  85 S8        29.94R
$$

LMZ563-521-522-541>543-260500-
LAKESHORE

STATION/POSITION TIME  TEMP    WIND        PRES    VSBY  WAVE
                       AIR SEA DIR/SP/G                  HT/PER
                 (UTC) (F)     (DEG/KT/KT) (MB)    (MI)  (FT/S)
SHEBOYGAN LKSHOR 0400   39 37  210/ 13/ 14 1014.8R
KEWAUNEE LKSHORE 0400   36     190/  1/  3 1013.0S
ALGOMA MARINA    0300             CALM       N/A
NORTHPORT PIER   0400   33      CALM  /  3 1014.2R
SISTER BAY LKSHO 0300             CALM       N/A
CHAMBERS ISLAND  0400   34     180/  2/  5 1014.2R
MENOMINEE LKSHOR 0400   33     170/  3/  4 1014.3F
$$



USA.gov is the U.S. government's official web portal to all federal, state and local government web resources and services.